Volver al catálogo

SL-8 R/B

ActivoPO
NORAD 12092·ROCKET BODY·🇷🇺 Russia

Lanzado Dec 10, 1980 desde Plesetsk Cosmodrome

Loading…

Próximos Pases (próximas 24 horas)

TLE

ActualizadoSource: Space-Track

Época: Sep 14, 2026, 10:34 UTC

1 12092U 80099B   26257.44033163 -.00000052  00000-0 -68053-4 0  9991
2 12092  82.9364 253.5113 0030249  15.2922 147.7206 13.77387316298694

Sigue SL-8 R/B en tiempo real con AllMySat

Download on the App Store